• în România
  • Lista ţărilor
  • Pe 7 zile
  • Temperatura apei
  • Hartă satelitară
  • Meteo pe hartă
  • Widget-uri
  • user-avatar
    Intrare

    Meteo pe oră la Birao

    Astăzi, 26 Februarie, Luni

    Timp Temperatura Precipitaţii Vânt Presiune Umiditate
    00:00 +30°C° 0 mm 2 m/s 715 mmHg 17%
    01:00 +30°C° 0 mm 2 m/s 715 mmHg 17%
    02:00 +29°C° 0 mm 2 m/s 715 mmHg 17%
    03:00 +29°C° 0 mm 2 m/s 714 mmHg 18%
    04:00 +29°C° 0 mm 2 m/s 714 mmHg 18%
    05:00 +28°C° 0 mm 2 m/s 714 mmHg 19%
    06:00 +29°C° 0 mm 2 m/s 715 mmHg 18%
    07:00 +29°C° 0 mm 2 m/s 715 mmHg 18%
    08:00 +30°C° 0 mm 2 m/s 716 mmHg 17%
    09:00 +34°C° 0 mm 2 m/s 716 mmHg 15%
    10:00 +38°C° 0 mm 2 m/s 717 mmHg 12%
    11:00 +42°C° 0 mm 3 m/s 717 mmHg 10%
    12:00 +42°C° 0 mm 2 m/s 716 mmHg 9%
    13:00 +45°C° 0 mm 2 m/s 716 mmHg 9%
    14:00 +46°C° 0 mm 2 m/s 715 mmHg 8%
    15:00 +46°C° 0 mm 2 m/s 714 mmHg 8%
    16:00 +45°C° 0 mm 2 m/s 714 mmHg 8%
    17:00 +45°C° 0 mm 2 m/s 713 mmHg 8%
    18:00 +41°C° 0 mm 2 m/s 713 mmHg 10%
    19:00 +38°C° 0 mm 2 m/s 713 mmHg 11%
    20:00 +35°C° 0 mm 2 m/s 713 mmHg 13%
    21:00 +34°C° 0 mm 2 m/s 713 mmHg 14%
    22:00 +34°C° 0 mm 2 m/s 713 mmHg 15%
    23:00 +32°C° 0 mm 2 m/s 714 mmHg 16%

    Mâine, 27 Februarie, Marţi

    Timp Temperatura Precipitaţii Vânt Presiune Umiditate
    00:00 +31°C° 0 mm 2 m/s 714 mmHg 16%
    01:00 +30°C° 0 mm 2 m/s 713 mmHg 17%
    02:00 +30°C° 0 mm 2 m/s 713 mmHg 18%
    03:00 +29°C° 0 mm 1 m/s 713 mmHg 19%
    04:00 +29°C° 0 mm 1 m/s 713 mmHg 20%
    05:00 +28°C° 0 mm 1 m/s 714 mmHg 21%
    06:00 +29°C° 0 mm 1 m/s 714 mmHg 21%
    07:00 +30°C° 0 mm 1 m/s 715 mmHg 20%
    08:00 +31°C° 0 mm 1 m/s 716 mmHg 20%
    09:00 +35°C° 0 mm 2 m/s 716 mmHg 18%
    10:00 +38°C° 0 mm 2 m/s 716 mmHg 16%
    11:00 +42°C° 0 mm 3 m/s 716 mmHg 14%
    12:00 +42°C° 0 mm 2 m/s 716 mmHg 12%
    13:00 +45°C° 0 mm 2 m/s 715 mmHg 10%
    14:00 +46°C° 0 mm 1 m/s 714 mmHg 8%
    15:00 +45°C° 0 mm 1 m/s 714 mmHg 8%
    16:00 +45°C° 0 mm 1 m/s 713 mmHg 8%
    17:00 +44°C° 0 mm 1 m/s 713 mmHg 8%
    18:00 +41°C° 0 mm 1 m/s 713 mmHg 9%
    19:00 +39°C° 0 mm 1 m/s 713 mmHg 10%
    20:00 +36°C° 0 mm 2 m/s 713 mmHg 11%
    21:00 +35°C° 0 mm 2 m/s 713 mmHg 13%
    22:00 +33°C° 0 mm 1 m/s 713 mmHg 14%
    23:00 +32°C° 0 mm 1 m/s 714 mmHg 15%

    Poimâine, 28 Februarie, Miercuri

    Timp Temperatura Precipitaţii Vânt Presiune Umiditate
    00:00 +31°C° 0 mm 2 m/s 714 mmHg 18%
    01:00 +30°C° 0 mm 2 m/s 714 mmHg 20%
    02:00 +29°C° 0 mm 2 m/s 714 mmHg 23%
    03:00 +29°C° 0 mm 2 m/s 714 mmHg 24%
    04:00 +29°C° 0 mm 2 m/s 714 mmHg 26%
    05:00 +28°C° 0 mm 2 m/s 714 mmHg 28%
    06:00 +29°C° 0 mm 3 m/s 714 mmHg 31%
    07:00 +29°C° 0 mm 3 m/s 715 mmHg 35%
    08:00 +30°C° 0 mm 4 m/s 716 mmHg 39%
    09:00 +34°C° 0 mm 4 m/s 716 mmHg 33%
    10:00 +36°C° 0 mm 4 m/s 716 mmHg 27%
    11:00 +40°C° 0 mm 4 m/s 717 mmHg 22%
    12:00 +42°C° 0 mm 3 m/s 716 mmHg 18%
    13:00 +43°C° 0 mm 3 m/s 715 mmHg 14%
    14:00 +45°C° 0 mm 3 m/s 714 mmHg 11%
    15:00 +45°C° 0 mm 3 m/s 713 mmHg 10%
    16:00 +45°C° 0 mm 2 m/s 713 mmHg 9%
    17:00 +45°C° 0 mm 2 m/s 712 mmHg 9%
    18:00 +41°C° 0 mm 2 m/s 712 mmHg 10%
    19:00 +38°C° 0 mm 2 m/s 712 mmHg 11%
    20:00 +36°C° 0 mm 2 m/s 713 mmHg 13%
    21:00 +34°C° 0 mm 1 m/s 713 mmHg 13%
    22:00 +33°C° 0 mm 1 m/s 713 mmHg 14%
    23:00 +32°C° 0 mm 1 m/s 714 mmHg 15%

    1 Martie, Joi

    Timp Temperatura Precipitaţii Vânt Presiune Umiditate
    00:00 +31°C° 0 mm 1 m/s 714 mmHg 16%
    01:00 +30°C° 0 mm 2 m/s 713 mmHg 18%
    02:00 +30°C° 0 mm 2 m/s 713 mmHg 20%
    03:00 +29°C° 0 mm 2 m/s 713 mmHg 25%
    04:00 +28°C° 0 mm 2 m/s 713 mmHg 31%
    05:00 +27°C° 0 mm 2 m/s 713 mmHg 36%
    06:00 +28°C° 0 mm 2 m/s 714 mmHg 37%
    07:00 +29°C° 0 mm 3 m/s 715 mmHg 39%
    08:00 +30°C° 0 mm 3 m/s 716 mmHg 40%
    09:00 +34°C° 0 mm 3 m/s 716 mmHg 33%
    10:00 +37°C° 0 mm 2 m/s 716 mmHg 26%
    11:00 +40°C° 0 mm 2 m/s 717 mmHg 19%
    12:00 +42°C° 0 mm 2 m/s 716 mmHg 16%
    13:00 +43°C° 0 mm 2 m/s 715 mmHg 14%
    14:00 +45°C° 0 mm 2 m/s 714 mmHg 11%
    15:00 +45°C° 0 mm 2 m/s 714 mmHg 11%
    16:00 +43°C° 0 mm 2 m/s 713 mmHg 11%
    17:00 +43°C° 0 mm 2 m/s 713 mmHg 10%
    18:00 +40°C° 0 mm 3 m/s 713 mmHg 11%
    19:00 +38°C° 0 mm 3 m/s 713 mmHg 12%
    20:00 +36°C° 0 mm 3 m/s 713 mmHg 12%
    21:00 +34°C° 0 mm 3 m/s 713 mmHg 13%
    22:00 +33°C° 0 mm 3 m/s 714 mmHg 13%
    23:00 +31°C° 0 mm 3 m/s 714 mmHg 13%

    2 Martie, Vineri

    Timp Temperatura Precipitaţii Vânt Presiune Umiditate
    00:00 +31°C° 0 mm 3 m/s 714 mmHg 14%
    01:00 +30°C° 0 mm 3 m/s 714 mmHg 14%
    02:00 +29°C° 0 mm 3 m/s 714 mmHg 15%
    03:00 +29°C° 0 mm 4 m/s 714 mmHg 15%
    04:00 +28°C° 0 mm 4 m/s 714 mmHg 15%
    05:00 +28°C° 0 mm 4 m/s 714 mmHg 15%
    06:00 +28°C° 0 mm 5 m/s 715 mmHg 14%
    07:00 +29°C° 0 mm 5 m/s 716 mmHg 13%
    08:00 +29°C° 0 mm 5 m/s 716 mmHg 12%
    09:00 +33°C° 0 mm 5 m/s 717 mmHg 11%
    10:00 +35°C° 0 mm 5 m/s 717 mmHg 9%
    11:00 +38°C° 0 mm 4 m/s 717 mmHg 8%
    12:00 +40°C° 0 mm 4 m/s 716 mmHg 8%
    13:00 +41°C° 0 mm 4 m/s 715 mmHg 8%
    14:00 +43°C° 0 mm 3 m/s 714 mmHg 8%
    15:00 +43°C° 0 mm 3 m/s 714 mmHg 9%
    16:00 +42°C° 0 mm 2 m/s 714 mmHg 9%
    17:00 +41°C° 0 mm 2 m/s 713 mmHg 9%
    18:00 +39°C° 0 mm 2 m/s 713 mmHg 12%
    19:00 +36°C° 0 mm 2 m/s 713 mmHg 14%
    20:00 +34°C° 0 mm 2 m/s 714 mmHg 16%
    21:00 +32°C° 0 mm 2 m/s 714 mmHg 18%
    22:00 +31°C° 0 mm 1 m/s 714 mmHg 19%
    23:00 +30°C° 0 mm 1 m/s 714 mmHg 21%

    3 Martie, Sâmbătă

    Timp Temperatura Precipitaţii Vânt Presiune Umiditate
    00:00 +30°C° 0 mm 1 m/s 714 mmHg 24%
    01:00 +29°C° 0 mm 1 m/s 713 mmHg 28%
    02:00 +29°C° 0 mm 1 m/s 713 mmHg 31%
    03:00 +29°C° 0 mm 2 m/s 713 mmHg 34%
    04:00 +29°C° 0 mm 2 m/s 714 mmHg 38%
    05:00 +29°C° 0 mm 2 m/s 714 mmHg 41%
    06:00 +29°C° 0 mm 2 m/s 714 mmHg 43%
    07:00 +30°C° 0 mm 2 m/s 715 mmHg 45%
    08:00 +30°C° 0 mm 2 m/s 716 mmHg 48%
    09:00 +31°C° 1,2 mm 2 m/s 716 mmHg 44%
    10:00 +32°C° 1,2 mm 2 m/s 716 mmHg 41%
    11:00 +34°C° 1,2 mm 2 m/s 717 mmHg 38%
    12:00 +35°C° 0,4 mm 2 m/s 716 mmHg 37%
    13:00 +35°C° 0,4 mm 2 m/s 715 mmHg 36%
    14:00 +36°C° 0,4 mm 2 m/s 714 mmHg 35%
    15:00 +36°C° 0,1 mm 2 m/s 714 mmHg 33%
    16:00 +37°C° 0,1 mm 2 m/s 714 mmHg 32%
    17:00 +37°C° 0,1 mm 2 m/s 713 mmHg 31%
    18:00 +35°C° 0,3 mm 3 m/s 714 mmHg 36%
    19:00 +33°C° 0,3 mm 3 m/s 714 mmHg 41%
    20:00 +31°C° 0,3 mm 3 m/s 714 mmHg 47%
    21:00 +30°C° 0 mm 3 m/s 714 mmHg 48%
    22:00 +29°C° 0 mm 2 m/s 715 mmHg 49%
    23:00 +28°C° 0 mm 2 m/s 715 mmHg 51%
    Arată mai mult